Regional Weather Roundup
Issued by NWS

Home | Current Version | Previous Version | Graphics & Text | Print | Product List | Glossary On
Versions: 1 2 3 4 5 6 7 8 9 10 11 12 13 14 15 16 17 18 19 20 21 22 23 24 25 26 27 28 29 30 31 32 33 34 35 36 37 38 39 40 41 42 43 44 45 46 47 48 49 50
000
ASUS44 KMEG 221010
RWRTN
TENNESSEE HOURLY STATE WEATHER ROUNDUP
NATIONAL WEATHER SERVICE MEMPHIS TN
500 AM CDT MON MAY 22 2017

TNZ002-004-019-021-049-052-054-088>092-221100-
WEST TENNESSEE

CITY           SKY/WX    TMP DP  RH WIND       PRES   REMARKS
MEMPHIS INTL   CLOUDY    63  51  65 NE9       30.12R
NWS MEMPHIS      N/A     62 N/A N/A MISG        N/A
JACKSON        CLOUDY    59  52  77 NE6       30.13R
DYERSBURG      CLOUDY    59  50  72 NE5       30.14R
SOMERVILLE     CLEAR     59  52  77 CALM      30.11S
COVINGTON      CLEAR     59  52  77 N5        30.12F
UNION CITY     CLEAR     57  50  77 CALM      30.14R
BOLIVAR        CLEAR     59  54  82 CALM      30.12S
PARIS          CLEAR     57  52  82 CALM      30.12R
HUNTINGDON     CLEAR     57  52  82 CALM      30.13R
SELMER         CLEAR     57  54  88 NE8       30.10F
SAVANNAH       CLEAR     55  55 100 N7        30.12R
$$

TNZ008-025-027-028-033-062-065-066-221100-
NORTH MIDDLE TENNESSEE

CITY           SKY/WX    TMP DP  RH WIND       PRES   REMARKS
NASHVILLE      CLOUDY    62  53  72 N8        30.13R
PORTLAND       PTCLDY    57  52  82 N8        30.12R
CLARKSVILLE    CLOUDY    56  50  80 CALM      30.13S
SMYRNA         CLOUDY    61  54  77 N9        30.13R
COOKEVILLE     CLEAR     61  57  88 VRB5      30.09R
GALLATIN       CLEAR     61  54  77 N6        30.15R
CROSSVILLE     CLOUDY    60  58  92 N5        30.12S
$$

TNZ061-075-076-078-094-096-097-221100-
SOUTH MIDDLE TENNESSEE

CITY           SKY/WX    TMP DP  RH WIND       PRES   REMARKS
FAYETTEVILLE   CLEAR     64  61  88 N7        30.08S
TULLAHOMA      PTCLDY    61  57  88 N6        30.11R
WINCHESTER     CLEAR     64  61  88 NW3       30.09R
MCMINNVILLE    PTCLDY    63  61  94 N6        30.10S
COLUMBIA       CLEAR     59  55  88 CALM      30.10R
SHELBYVILLE    CLEAR     61  57  88 N6        30.10R
$$

TNZ017-018-042-046-047-221100-
NORTHEAST TENNESSEE

CITY           SKY/WX    TMP DP  RH WIND       PRES   REMARKS
TRI CITIES     CLOUDY    62  61  96 CALM      30.08S
ELIZABETHTON   DRIZZLE   63  61  94 CALM      30.08S
$$

TNZ012-013-036-069-073-074-221100-
CENTRAL EAST TENNESSEE

CITY           SKY/WX    TMP DP  RH WIND       PRES   REMARKS
KNOXVILLE      CLOUDY    67  65  93 SW3       30.07R
OAK RIDGE      MOCLDY    67  65  93 CALM      30.08R
GATLINBURG     CLOUDY    64  64 100 W3        30.07R
MORRISTOWN     CLEAR     64  64 100 CALM      30.07R
JACKSBORO      MOCLDY    66  63  88 CALM      30.10R
$$

TNZ083-085-099-221100-
SOUTHEAST TENNESSEE

CITY           SKY/WX    TMP DP  RH WIND       PRES   REMARKS
CHATTANOOGA    MOCLDY    69  65  86 NW3       30.06S
$$

SKY/WX REPORTED AS FAIR MEANS FEW OR NO CLOUDS BELOW
12 THOUSAND FEET.





USA.gov is the U.S. government's official web portal to all federal, state and local government web resources and services.